H1 CPF 2 NER 2024 8 21 9 234 01 glonass128 H2 1106401 9128 37867 2024 8 21 0 0 0 2024 8 24 23 45 0 900 1 1 0 0 0 1 H9 10 0 60543 0.00000 0 -10145081.919 21551129.869 -9170334.395 10 0 60543 900.00000 0 -10541338.586 22427943.994 -6137539.639 10 0 60543 1800.00000 0 -10683112.903 23001474.675 -2985814.549 10 0 60543 2700.00000 0 -10610845.436 23232575.845 223732.147 10 0 60543 3600.00000 0 -10372620.509 23093072.903 3428956.513 10 0 60543 4500.00000 0 -10021906.763 22567024.727 6567872.895 10 0 60543 5400.00000 0 -9615086.915 21651492.320 9579838.689 10 0 60543 6300.00000 0 -9208880.637 20356783.418 12406708.596 10 0 60543 7200.00000 0 -8857768.289 18706163.949 14993937.538 10 0 60543 8100.00000 0 -8611522.554 16735048.851 17291612.728 10 0 60543 9000.00000 0 -8512950.183 14489705.789 19255396.918 10 0 60543 9900.00000 0 -8595937.127 12025524.759 20847366.530 10 0 60543 10800.00000 0 -8883877.788 9404923.877 22036730.318 10 0 60543 11700.00000 0 -9388553.477 6694976.021 22800416.185 10 0 60543 12600.00000 0 -10109507.019 3964852.174 23123515.831 10 0 60543 13500.00000 0 -11033940.421 1283184.650 22999579.101 10 0 60543 14400.00000 0 -12137141.494 -1284543.265 22430752.135 10 0 60543 15300.00000 0 -13383423.798 -3678475.361 21427755.734 10 0 60543 16200.00000 0 -14727543.423 -5846627.304 20009702.878 10 0 60543 17100.00000 0 -16116536.271 -7746806.110 18203756.829 10 0 60543 18000.00000 0 -17491901.838 -9348124.802 16044634.078 10 0 60543 18900.00000 0 -18792044.449 -10632048.812 13573959.200 10 0 60543 19800.00000 0 -19954871.323 -11592929.493 10839481.632 10 0 60543 20700.00000 0 -20920439.254 -12238001.008 7894167.443 10 0 60543 21600.00000 0 -21633538.416 -12586839.260 4795182.070 10 0 60543 22500.00000 0 -22046103.438 -12670304.196 1602782.792 10 0 60543 23400.00000 0 -22119348.034 -12529009.043 -1620857.700 10 0 60543 24300.00000 0 -21825530.508 -12211380.678 -4812873.207 10 0 60543 25200.00000 0 -21149272.534 -11771393.429 -7910946.375 10 0 60543 26100.00000 0 -20088372.467 -11266073.295 -10854545.404 10 0 60543 27000.00000 0 -18654076.032 -10752880.033 -13586128.843 10 0 60543 27900.00000 0 -16870790.714 -10287080.319 -16052292.589 10 0 60543 28800.00000 0 -14775254.342 -9919225.861 -18204834.419 10 0 60543 29700.00000 0 -12415192.185 -9692845.865 -20001713.221 10 0 60543 30600.00000 0 -9847519.079 -9642453.907 -21407882.646 10 0 60543 31500.00000 0 -7136162.822 -9791955.371 -22395981.810 10 0 60543 32400.00000 0 -4349601.287 -10153524.003 -22946869.128 10 0 60543 33300.00000 0 -1558217.726 -10726995.447 -23049988.982 10 0 60543 34200.00000 0 1168413.857 -11499803.102 -22703564.725 10 0 60543 35100.00000 0 3764198.933 -12447458.006 -21914615.346 10 0 60543 36000.00000 0 6169036.514 -13534551.090 -20698796.931 10 0 60543 36900.00000 0 8331072.514 -14716233.743 -19080073.647 10 0 60543 37800.00000 0 10208599.630 -15940112.486 -17090226.436 10 0 60543 38700.00000 0 11771526.482 -17148476.237 -14768210.722 10 0 60543 39600.00000 0 13002357.350 -18280760.935 -12159377.317 10 0 60543 40500.00000 0 13896644.852 -19276146.874 -9314573.158 10 0 60543 41400.00000 0 14462900.171 -20076179.042 -6289140.561 10 0 60543 42300.00000 0 14721968.168 -20627300.407 -3141835.378 10 0 60543 43200.00000 0 14705896.935 -20883192.398 66314.407 10 0 60543 44100.00000 0 14456352.063 -20806825.385 3273187.369 10 0 60543 45000.00000 0 14022644.401 -20372134.552 6416762.049 10 0 60543 45900.00000 0 13459455.484 -19565252.425 9436302.672 10 0 60543 46800.00000 0 12824356.716 -18385247.861 12273515.422 10 0 60543 47700.00000 0 12175226.202 -16844341.724 14873654.343 10 0 60543 48600.00000 0 11567670.747 -14967590.824 17186557.316 10 0 60543 49500.00000 0 11052559.753 -12792053.246 19167594.048 10 0 60543 50400.00000 0 10673772.817 -10365469.067 20778509.691 10 0 60543 51300.00000 0 10466253.816 -7744509.806 21988149.645 10 0 60543 52200.00000 0 10454451.728 -4992667.101 22773053.080 10 0 60543 53100.00000 0 10651212.762 -2177865.612 23117904.734 10 0 60543 54000.00000 0 11057170.167 630103.863 23015836.760 10 0 60543 54900.00000 0 11660658.070 3362227.652 22468574.605 10 0 60543 55800.00000 0 12438154.528 5952881.974 21486423.235 10 0 60543 56700.00000 0 13355237.471 8342309.122 20088092.472 10 0 60543 57600.00000 0 14368016.117 10478855.875 18300362.800 10 0 60543 58500.00000 0 15424980.617 12320881.850 16157595.721 10 0 60543 59400.00000 0 16469194.872 13838258.367 13701095.590 10 0 60543 60300.00000 0 17440742.471 15013394.580 10978332.826 10 0 60543 61200.00000 0 18279324.148 15841746.697 8042041.400 10 0 60543 62100.00000 0 18926897.729 16331787.385 4949206.454 10 0 60543 63000.00000 0 19330248.639 16504435.051 1759960.698 10 0 60543 63900.00000 0 19443380.839 16391965.643 -1463589.167 10 0 60543 64800.00000 0 19229624.836 16036452.006 -4658582.664 10 0 60543 65700.00000 0 18663370.738 15487796.491 -7762647.434 10 0 60543 66600.00000 0 17731349.912 14801440.531 -10715136.765 10 0 60543 67500.00000 0 16433408.010 14035849.409 -13458336.477 10 0 60543 68400.00000 0 14782733.954 13249880.571 -15938615.284 10 0 60543 69300.00000 0 12805533.145 12500149.203 -18107493.850 10 0 60543 70200.00000 0 10540157.293 11838505.048 -19922609.650 10 0 60543 71100.00000 0 8035726.923 11309729.527 -21348557.202 10 0 60543 72000.00000 0 5350304.660 10949552.488 -22357586.125 10 0 60543 72900.00000 0 2548696.668 10783073.702 -22930142.955 10 0 60543 73800.00000 0 -300024.509 10823656.355 -23055246.208 10 0 60543 74700.00000 0 -3125170.841 11072339.046 -22730688.002 10 0 60543 75600.00000 0 -5857151.617 11517790.133 -21963059.401 10 0 60543 76500.00000 0 -8430134.247 12136804.818 -20767600.403 10 0 60543 77400.00000 0 -10784541.997 12895322.010 -19167879.129 10 0 60543 78300.00000 0 -12869285.150 13749915.938 -17195308.257 10 0 60543 79200.00000 0 -14643633.983 14649697.471 -14888509.836 10 0 60543 80100.00000 0 -16078657.579 15538543.111 -12292542.526 10 0 60543 81000.00000 0 -17158171.199 16357556.207 -9458007.782 10 0 60543 81900.00000 0 -17879155.881 17047655.744 -6440053.583 10 0 60543 82800.00000 0 -18251636.151 17552183.292 -3297295.997 10 0 60543 83700.00000 0 -18298024.318 17819418.572 -90680.109 10 0 60543 84600.00000 0 -18051961.927 17804898.583 3117697.464 10 0 60543 85500.00000 0 -17556709.415 17473443.867 6265781.869 10 0 60544 0.00000 0 -16863153.397 16800808.336 9292746.440 10 0 60544 900.00000 0 -16027515.708 15774884.316 12140152.038 10 0 60544 1800.00000 0 -15108861.428 14396414.518 14753054.288 10 0 60544 2700.00000 0 -14166508.464 12679180.678 17081044.516 10 0 60544 3600.00000 0 -13257446.901 10649661.929 19079202.146 10 0 60544 4500.00000 0 -12433874.227 8346176.305 20708943.749 10 0 60544 5400.00000 0 -11740947.858 5817539.817 21938753.914 10 0 60544 6300.00000 0 -11214847.326 3121296.788 22744785.396 10 0 60544 7200.00000 0 -10881225.906 321592.323 23111318.005 10 0 60544 8100.00000 0 -10754115.751 -2513227.833 23031067.880 10 0 60544 9000.00000 0 -10835332.356 -5313193.725 22505341.048 10 0 60544 9900.00000 0 -11114404.124 -8009360.053 21544027.440 10 0 60544 10800.00000 0 -11569031.490 -10536420.265 20165434.023 10 0 60544 11700.00000 0 -12166058.509 -12835179.365 18395958.278 10 0 60544 12600.00000 0 -12862918.570 -14854783.895 16269605.954 10 0 60544 13500.00000 0 -13609495.988 -16554616.646 13827359.919 10 0 60544 14400.00000 0 -14350327.383 -17905776.673 11116409.822 10 0 60544 15300.00000 0 -15027051.719 -18892081.637 8189255.356 10 0 60544 16200.00000 0 -15581006.525 -19510548.923 5102698.818 10 0 60544 17100.00000 0 -15955860.527 -19771333.580 1916745.487 10 0 60544 18000.00000 0 -16100170.330 -19697123.958 -1306567.050 10 0 60544 18900.00000 0 -15969750.996 -19322019.219 -4504387.383 10 0 60544 19800.00000 0 -15529757.562 -18689935.316 -7614291.669 10 0 60544 20700.00000 0 -14756386.275 -17852606.754 -10575521.919 10 0 60544 21600.00000 0 -13638120.349 -16867269.382 -13330194.914 10 0 60544 22500.00000 0 -12176464.571 -15794123.618 -15824455.815 10 0 60544 23400.00000 0 -10386135.139 -14693687.390 -18009551.645 10 0 60544 24300.00000 0 -8294694.851 -13624152.991 -19842801.632 10 0 60544 25200.00000 0 -5941647.870 -12638861.785 -21288443.881 10 0 60544 26100.00000 0 -3377031.794 -11784005.483 -22318340.685 10 0 60544 27000.00000 0 -659566.469 -11096652.449 -22912528.226 10 0 60544 27900.00000 0 2145562.052 -10603183.104 -23059599.999 10 0 60544 28800.00000 0 4969188.489 -10318200.327 -22756917.075 10 0 60544 29700.00000 0 7740821.208 -10243959.958 -22010642.140 10 0 60544 30600.00000 0 10391349.284 -10370343.825 -20835598.078 10 0 60544 31500.00000 0 12855690.299 -10675374.313 -19254955.435 10 0 60544 32400.00000 0 15075268.599 -11126246.314 -17299756.645 10 0 60544 33300.00000 0 17000221.495 -11680830.529 -15008287.986 10 0 60544 34200.00000 0 18591242.938 -12289582.297 -12425313.203 10 0 60544 35100.00000 0 19820989.984 -12897773.404 -9601185.190 10 0 60544 36000.00000 0 20674996.114 -13447951.214 -6590854.244 10 0 60544 36900.00000 0 21152056.344 -13882520.482 -3452793.139 10 0 60544 37800.00000 0 21264071.290 -14146338.731 -247860.479 10 0 60544 38700.00000 0 21035359.782 -14189216.142 2961875.457 10 0 60544 39600.00000 0 20501471.498 -13968215.539 6114329.781 10 0 60544 40500.00000 0 19707551.471 -13449656.863 9148588.537 10 0 60544 41400.00000 0 18706326.278 -12610743.220 12006068.882 10 0 60544 42300.00000 0 17555796.804 -11440741.480 14631630.860 10 0 60544 43200.00000 0 16316733.866 -9941668.852 16974621.082 10 0 60544 44100.00000 0 15050080.495 -8128457.071 18989830.085 10 0 60544 45000.00000 0 13814367.942 -6028587.045 20638346.816 10 0 60544 45900.00000 0 12663251.595 -3681208.127 21888295.618 10 0 60544 46800.00000 0 11643267.751 -1135776.834 22715443.030 10 0 60544 47700.00000 0 10791903.285 1549730.861 23103663.782 10 0 60544 48600.00000 0 10136057.506 4310962.416 23045257.547 10 0 60544 49500.00000 0 9690959.823 7079601.127 22541110.182 10 0 60544 50400.00000 0 9459588.544 9785951.166 21600695.577 10 0 60544 51300.00000 0 9432615.946 12361590.941 20241916.616 10 0 60544 52200.00000 0 9588883.399 14741987.026 18490786.350 10 0 60544 53100.00000 0 9896388.598 16868961.610 16380953.185 10 0 60544 54000.00000 0 10313745.638 18692911.573 13953076.756 10 0 60544 54900.00000 0 10792058.635 20174686.554 11254064.062 10 0 60544 55800.00000 0 11277131.719 21287046.613 8336178.510 10 0 60544 56700.00000 0 11711923.281 22015636.975 5256037.424 10 0 60544 57600.00000 0 12039141.058 22359437.050 2073516.421 10 0 60544 58500.00000 0 12203867.660 22330662.873 -1149418.324 10 0 60544 59400.00000 0 12156103.855 21954125.343 -4349926.790 10 0 60544 60300.00000 0 11853119.525 21266070.017 -7465535.931 10 0 60544 61200.00000 0 11261509.840 20312546.821 -10435378.683 10 0 60544 62100.00000 0 10358866.354 19147378.718 -13201404.856 10 0 60544 63000.00000 0 9134989.117 17829816.012 -15709537.975 10 0 60544 63900.00000 0 7592585.694 16421977.000 -17910753.171 10 0 60544 64800.00000 0 5747425.227 14986185.006 -19762053.024 10 0 60544 65700.00000 0 3627939.414 13582316.374 -21227320.673 10 0 60544 66600.00000 0 1274286.368 12265273.314 -22278032.376 10 0 60544 67500.00000 0 -1263083.431 11082689.765 -22893815.072 10 0 60544 68400.00000 0 -3925298.433 10072967.883 -23062838.120 10 0 60544 69300.00000 0 -6647295.222 9263728.065 -22782032.113 10 0 60544 70200.00000 0 -9360311.243 8670737.057 -22057131.574 10 0 60544 71100.00000 0 -11994535.839 8297357.818 -20902542.051 10 0 60544 72000.00000 0 -14481808.061 8134542.153 -19341035.843 10 0 60544 72900.00000 0 -16758248.378 8161363.770 -17403284.028 10 0 60544 73800.00000 0 -18766714.787 8346066.430 -15127235.623 10 0 60544 74700.00000 0 -20458981.788 8647580.182 -12557357.671 10 0 60544 75600.00000 0 -21797552.951 9017439.103 -9743752.506 10 0 60544 76500.00000 0 -22757033.654 9402017.546 -6741170.624 10 0 60544 77400.00000 0 -23325009.296 9744988.984 -3607939.323 10 0 60544 78300.00000 0 -23502395.249 9989902.882 -404828.509 10 0 60544 79200.00000 0 -23303246.834 10082770.711 2806124.107 10 0 60544 80100.00000 0 -22754039.998 9974552.545 5962805.857 10 0 60544 81000.00000 0 -21892455.033 9623440.394 9004217.520 10 0 60544 81900.00000 0 -20765715.838 8996843.387 11871635.412 10 0 60544 82800.00000 0 -19428555.033 8072992.624 14509726.047 10 0 60544 83700.00000 0 -17940890.044 6842099.410 16867593.620 10 0 60544 84600.00000 0 -16365306.512 5307018.962 18899742.003 10 0 60544 85500.00000 0 -14764452.742 3483391.882 20566934.610 10 0 60545 0.00000 0 -13198452.220 1399256.968 21836937.330 10 0 60545 900.00000 0 -11722439.206 -905851.160 22685132.349 10 0 60545 1800.00000 0 -10384320.215 -3382281.419 23094990.541 10 0 60545 2700.00000 0 -9222850.190 -5972071.807 23058396.129 10 0 60545 3600.00000 0 -8266104.433 -8611106.619 22575815.490 10 0 60545 4500.00000 0 -7530408.658 -11231540.144 21656306.806 10 0 60545 5400.00000 0 -7019772.114 -13764389.196 20317368.839 10 0 60545 6300.00000 0 -6725848.359 -16142189.527 18584629.794 10 0 60545 7200.00000 0 -6628426.730 -18301607.638 16491379.940 10 0 60545 8100.00000 0 -6696435.738 -20185900.469 14077954.523 10 0 60545 9000.00000 0 -6889418.115 -21747120.633 11390976.389 10 0 60545 9900.00000 0 -7159417.174 -22947974.420 8482470.839 10 0 60545 10800.00000 0 -7453196.232 -23763253.398 5408868.135 10 0 60545 11700.00000 0 -7714697.918 -24180777.657 2229911.897 10 0 60545 12600.00000 0 -7887639.120 -24201808.829 -992505.670 10 0 60545 13500.00000 0 -7918130.572 -23840913.411 -4195558.687 10 0 60545 14400.00000 0 -7757208.112 -23125280.320 -7316727.858 10 0 60545 15300.00000 0 -7363165.712 -22093520.273 -10295040.155 10 0 60545 16200.00000 0 -6703588.361 -20793997.192 -13072281.650 10 0 60545 17100.00000 0 -5756995.486 -19282762.386 -15594157.510 10 0 60545 18000.00000 0 -4514022.329 -17621179.754 -17811374.191 10 0 60545 18900.00000 0 -2978086.709 -15873343.820 -19680620.660 10 0 60545 19800.00000 0 -1165511.008 -14103401.383 -21165427.817 10 0 60545 20700.00000 0 894907.040 -12372891.618 -22236888.177 10 0 60545 21600.00000 0 3162857.221 -10738218.312 -22874221.214 10 0 60545 22500.00000 0 5587972.795 -9248361.763 -23065173.349 10 0 60545 23400.00000 0 8111717.730 -7942926.998 -22806245.312 10 0 60545 24300.00000 0 10669625.148 -6850609.990 -22102743.477 10 0 60545 25200.00000 0 13193792.187 -5988145.054 -20968655.518 10 0 60545 26100.00000 0 15615525.927 -5359775.648 -19426354.417 10 0 60545 27000.00000 0 17868029.154 -4957268.184 -17506138.311 10 0 60545 27900.00000 0 19889013.601 -4760465.176 -15245616.884 10 0 60545 28800.00000 0 21623131.934 -4738351.277 -12688957.920 10 0 60545 29700.00000 0 23024127.969 -4850584.168 -9886010.205 10 0 60545 30600.00000 0 24056616.998 -5049423.082 -6891321.072 10 0 60545 31500.00000 0 24697423.986 -5281971.440 -3763068.689 10 0 60545 32400.00000 0 24936426.279 -5492637.509 -561930.470 10 0 60545 33300.00000 0 24776868.253 -5625708.538 2650090.263 10 0 60545 34200.00000 0 24235137.355 -5627929.748 5810856.741 10 0 60545 35100.00000 0 23340013.173 -5450980.043 8859287.895 10 0 60545 36000.00000 0 22131422.684 -5053741.174 11736522.234 10 0 60545 36900.00000 0 20658754.761 -4404266.083 14387035.341 10 0 60545 37800.00000 0 18978804.635 -3481364.959 16759691.107 10 0 60545 38700.00000 0 17153433.602 -2275743.317 18808708.366 10 0 60545 39600.00000 0 15247040.380 -790644.885 20494526.162 10 0 60545 40500.00000 0 13323947.727 958027.900 21784552.836 10 0 60545 41400.00000 0 11445811.025 2942121.844 22653786.079 10 0 60545 42300.00000 0 9669154.465 5122154.239 23085293.089 10 0 60545 43200.00000 0 8043135.304 7448711.558 23070542.189 10 0 60545 44100.00000 0 6607627.509 9864270.455 22609579.464 10 0 60545 45000.00000 0 5391703.482 12305368.701 21711046.228 10 0 60545 45900.00000 0 4412576.687 14705039.072 20392035.646 10 0 60545 46800.00000 0 3675049.539 16995407.986 18677789.322 10 0 60545 47700.00000 0 3171490.566 19110353.123 16601237.396 10 0 60545 48600.00000 0 2882343.172 20988110.881 14202388.526 10 0 60545 49500.00000 0 2777146.312 22573725.555 11527579.063 10 0 60545 50400.00000 0 2816025.846 23821237.535 8628593.738 10 0 60545 51300.00000 0 2951595.074 24695517.743 5561673.190 10 0 60545 52200.00000 0 3131185.125 25173669.491 2386426.432 10 0 60545 53100.00000 0 3299310.964 25245936.545 -835330.921 10 0 60545 54000.00000 0 3400267.953 24916076.754 -4040789.711 10 0 60545 54900.00000 0 3380747.369 24201183.263 -7167386.865 10 0 60545 55800.00000 0 3192357.745 23130959.061 -10154045.705 10 0 60545 56700.00000 0 2793942.314 21746474.358 -12942390.670 10 0 60545 57600.00000 0 2153591.254 20098458.871 -15477910.441 10 0 60545 58500.00000 0 1250260.434 18245201.524 -17711044.439 10 0 60545 59400.00000 0 74925.357 16250147.194 -19598169.423 10 0 60545 60300.00000 0 -1368780.753 14179293.387 -21102465.243 10 0 60545 61200.00000 0 -3064473.251 12098498.193 -22194641.649 10 0 60545 62100.00000 0 -4983471.585 10070814.486 -22853511.393 10 0 60545 63000.00000 0 -7085785.038 8153963.690 -23066398.429 10 0 60545 63900.00000 0 -9321586.763 6398055.957 -22829373.766 10 0 60545 64800.00000 0 -11633113.389 4843652.360 -22147315.389 10 0 60545 65700.00000 0 -13956909.406 3520249.472 -21033792.420 10 0 60545 66600.00000 0 -16226321.153 2445248.181 -19510777.392 10 0 60545 67500.00000 0 -18374135.062 1623447.482 -17608193.940 10 0 60545 68400.00000 0 -20335249.228 1047081.435 -15363310.475 10 0 60545 69300.00000 0 -22049266.467 696394.383 -12819993.307 10 0 60545 70200.00000 0 -23462900.956 540726.783 -10027835.261 10 0 60545 71100.00000 0 -24532098.950 540062.748 -7041177.993 10 0 60545 72000.00000 0 -25223786.512 646971.366 -3918048.004 10 0 60545 72900.00000 0 -25517173.270 808857.831 -719027.686 10 0 60545 73800.00000 0 -25404559.993 970428.111 2493916.512 10 0 60545 74700.00000 0 -24891618.587 1076262.628 5658626.164 10 0 60545 75600.00000 0 -23997134.999 1073390.562 8713940.732 10 0 60545 76500.00000 0 -22752227.559 913757.053 11600863.240 10 0 60545 77400.00000 0 -21199074.624 556480.518 14263680.542 10 0 60545 78300.00000 0 -19389205.118 -30193.549 16651018.296 10 0 60545 79200.00000 0 -17381422.981 -867323.225 18716812.166 10 0 60545 80100.00000 0 -15239450.984 -1964150.254 20421178.433 10 0 60545 81000.00000 0 -13029390.332 -3317476.273 21731169.114 10 0 60545 81900.00000 0 -10817099.580 -4911561.803 22621398.603 10 0 60545 82800.00000 0 -8665599.449 -6718553.501 23074530.914 10 0 60545 83700.00000 0 -6632609.046 -8699423.973 23081618.759 10 0 60545 84600.00000 0 -4768313.729 -10805387.705 22642287.875 10 0 60545 85500.00000 0 -3113455.836 -12979737.319 21764762.359 10 0 60546 0.00000 0 -1697826.821 -15160026.790 20465729.274 10 0 60546 900.00000 0 -539222.584 -17280515.048 18770042.472 10 0 60546 1800.00000 0 357092.127 -19274767.921 16710270.880 10 0 60546 2700.00000 0 998389.427 -21078315.729 14326095.135 10 0 60546 3600.00000 0 1403950.530 -22631253.747 11663563.403 10 0 60546 4500.00000 0 1604025.928 -23880677.987 8774217.943 10 0 60546 5400.00000 0 1638325.707 -24782853.209 5714107.673 10 0 60546 6300.00000 0 1554102.631 -25305020.493 2542704.743 10 0 60546 7200.00000 0 1403908.496 -25426766.070 -678254.207 10 0 60546 8100.00000 0 1243119.037 -25140891.213 -3885979.240 10 0 60546 9000.00000 0 1127333.303 -24453743.898 -7017866.094 10 0 60546 9900.00000 0 1109759.656 -23384995.971 -10012737.119 10 0 60546 10800.00000 0 1238701.692 -21966873.460 -12812057.850 10 0 60546 11700.00000 0 1555253.590 -20242871.522 -15361103.221 10 0 60546 12600.00000 0 2091305.537 -18266007.995 -17610048.293 10 0 60546 13500.00000 0 2867946.540 -16096689.738 -19514960.133 10 0 60546 14400.00000 0 3894334.636 -13800282.705 -21038669.801 10 0 60546 15300.00000 0 5167084.065 -11444489.545 -22151506.190 10 0 60546 16200.00000 0 6670196.393 -9096646.525 -22831876.809 10 0 60546 17100.00000 0 8375538.907 -6821054.651 -23066684.147 10 0 60546 18000.00000 0 10243849.843 -4676457.916 -22851569.995 10 0 60546 18900.00000 0 12226227.404 -2713774.626 -22190983.956 10 0 60546 19800.00000 0 14266038.886 -974176.322 -21098076.127 10 0 60546 20700.00000 0 16301168.490 512406.624 -19594417.641 10 0 60546 21600.00000 0 18266508.343 1728292.297 -17709556.229 10 0 60546 22500.00000 0 20096587.409 2668528.125 -15480417.162 10 0 60546 23400.00000 0 21728227.587 3340828.486 -12950562.963 10 0 60546 24300.00000 0 23103115.768 3764975.273 -10169327.755 10 0 60546 25200.00000 0 24170184.734 3971710.110 -7190844.394 10 0 60546 26100.00000 0 24887704.321 4001168.056 -4072984.304 10 0 60546 27000.00000 0 25224996.922 3900921.385 -876231.248 10 0 60546 27900.00000 0 25163707.482 3723717.841 2337488.852 10 0 60546 28800.00000 0 24698576.907 3525009.819 5505999.484 10 0 60546 29700.00000 0 23837688.597 3360378.998 8568064.010 10 0 60546 30600.00000 0 22602179.515 3282964.556 11464553.008 10 0 60546 31500.00000 0 21025429.138 3341002.336 14139567.275 10 0 60546 32400.00000 0 19151760.748 3575577.270 16541496.471 10 0 60546 33300.00000 0 17034709.095 4018682.149 18623994.894 10 0 60546 34200.00000 0 14734925.709 4691663.101 20346857.437 10 0 60546 35100.00000 0 12317807.453 5604116.219 21676780.741 10 0 60546 36000.00000 0 9850944.748 6753281.470 22587996.451 10 0 60546 36900.00000 0 7401493.027 8123959.934 23062765.538 10 0 60546 37800.00000 0 5033573.932 9688959.326 23091724.823 10 0 60546 38700.00000 0 2805811.696 11410051.481 22674079.012 10 0 60546 39600.00000 0 769104.977 13239404.637 21817633.866 10 0 60546 40500.00000 0 -1035274.797 15121433.980 20538668.552 10 0 60546 41400.00000 0 -2577180.245 16994996.424 18861647.740 10 0 60546 42300.00000 0 -3838617.719 18795840.934 16818776.718 10 0 60546 43200.00000 0 -4814266.298 20459214.359 14449405.613 10 0 60546 44100.00000 0 -5511463.257 21922515.341 11799291.732 10 0 60546 45000.00000 0 -5949655.236 23127885.671 8919732.056 10 0 60546 45900.00000 0 -6159336.674 24024629.962 5866580.925 10 0 60546 46800.00000 0 -6180519.039 24571360.616 2699170.757 10 0 60546 47700.00000 0 -6060794.668 24737775.690 -520843.622 10 0 60546 48600.00000 0 -5853077.007 24505992.142 -3730694.235 10 0 60546 49500.00000 0 -5613113.568 23871375.385 -6867738.248 10 0 60546 50400.00000 0 -5396878.453 22842827.492 -9870699.445 10 0 60546 51300.00000 0 -5257957.080 21442519.568 -12680886.632 10 0 60546 52200.00000 0 -5245036.619 19705077.947 -15243362.892 10 0 60546 53100.00000 0 -5399611.343 17676257.676 -17508040.531 10 0 60546 54000.00000 0 -5754002.890 15411159.100 -19430678.248 10 0 60546 54900.00000 0 -6329781.769 12972063.227 -20973759.360 10 0 60546 55800.00000 0 -7136658.794 10425978.069 -22107232.683 10 0 60546 56700.00000 0 -8171894.618 7842000.427 -22809100.997 10 0 60546 57600.00000 0 -9420252.834 5288605.177 -23065845.556 10 0 60546 58500.00000 0 -10854498.474 2830976.827 -22872678.837 10 0 60546 59400.00000 0 -12436420.186 528495.626 -22233621.593 10 0 60546 60300.00000 0 -14118331.901 -1567516.697 -21161404.024 10 0 60546 61200.00000 0 -15844989.417 -3415698.199 -19677194.578 10 0 60546 62100.00000 0 -17555839.931 -4986117.236 -17810163.375 10 0 60546 63000.00000 0 -19187508.791 -6261253.239 -15596890.493 10 0 60546 63900.00000 0 -20676418.110 -7236449.792 -13080632.310 10 0 60546 64800.00000 0 -21961426.930 -7919824.569 -10310461.688 10 0 60546 65700.00000 0 -22986382.238 -8331643.546 -7340300.006 10 0 60546 66600.00000 0 -23702474.488 -8503189.279 -4227860.866 10 0 60546 67500.00000 0 -24070300.001 -8475173.895 -1033526.664 10 0 60546 68400.00000 0 -24061545.373 -8295766.094 2180819.924 10 0 60546 69300.00000 0 -23660225.088 -8018316.893 5352986.963 10 0 60546 70200.00000 0 -22863422.343 -7698880.802 8421664.298 10 0 60546 71100.00000 0 -21681503.783 -7393636.877 11327592.549 10 0 60546 72000.00000 0 -20137800.399 -7156317.600 14014688.782 10 0 60546 72900.00000 0 -18267768.662 -7035752.611 16431108.784 10 0 60546 73800.00000 0 -16117666.867 -7073629.117 18530227.335 10 0 60546 74700.00000 0 -13742801.115 -7302561.585 20271519.462 10 0 60546 75600.00000 0 -11205412.446 -7744550.555 21621327.575 10 0 60546 76500.00000 0 -8572290.809 -8409894.429 22553501.309 10 0 60546 77400.00000 0 -5912212.470 -9296599.881 23049898.928 10 0 60546 78300.00000 0 -3293304.379 -10390316.304 23100741.304 10 0 60546 79200.00000 0 -780442.110 -11664798.710 22704811.696 10 0 60546 80100.00000 0 1567213.070 -13082882.004 21869496.799 10 0 60546 81000.00000 0 3698437.750 -14597928.788 20610667.001 10 0 60546 81900.00000 0 5571839.385 -16155693.246 18952396.282 10 0 60546 82800.00000 0 7157340.507 -17696526.124 16926524.871 10 0 60546 83700.00000 0 8437192.061 -19157831.162 14572070.627 10 0 60546 84600.00000 0 9406472.710 -20476671.961 11934497.998 10 0 60546 85500.00000 0 10073051.901 -21592420.955 9064856.469 99